Simultaneous Nadir Overpasses (SNOs) Predictions

Prediction of SNOs between METOP-A and NOAA-19 Satellite Orbit:

Table of predicted SNOs for the next 14.0 days since TLE Epoch: 10/24/2020
Index Date (METOP-A) Time (METOP-A) Lat,Lon (METOP-A) SZA (METOP-A ) Date (NOAA-19) Time (NOAA-19) Lat,Lon (NOAA-19) SZA (NOAA-19 ) Distance(km) Time Diff (sec)
1 10/24/2020 04:23:30 80.74, 127.42 93.00 10/24/2020 04:22:38 80.74, 127.28 92.98 2.52 52
2 10/24/2020 05:14:11 -80.74, -65.26 87.00 10/24/2020 05:13:39 -80.73, -65.34 87.01 1.55 32
3 10/24/2020 06:04:52 80.73, 101.94 93.01 10/24/2020 06:04:38 80.73, 101.96 93.01 0.36 14
4 10/24/2020 06:55:33 -80.73, -90.73 86.99 10/24/2020 06:55:39 -80.73, -90.65 86.98 1.50 6
5 10/24/2020 07:46:14 80.72, 76.47 93.02 10/24/2020 07:46:38 80.73, 76.64 93.04 3.16 24
6 10/24/2020 08:36:55 -80.72,-116.21 86.98 10/24/2020 08:37:40 -80.73,-116.33 86.96 2.53 45
7 10/24/2020 09:27:35 80.74, 51.33 93.06 10/24/2020 09:28:38 80.72, 51.32 93.06 1.38 63
8 11/04/2020 05:36:56 80.75, 108.92 96.62 11/04/2020 05:35:50 80.75, 109.06 96.61 2.50 66
9 11/04/2020 06:27:37 -80.75, -83.71 83.37 11/04/2020 06:26:54 -80.74, -83.65 83.38 1.18 43
10 11/04/2020 07:18:18 80.74, 83.45 96.62 11/04/2020 07:17:51 80.75, 83.38 96.63 1.88 27
11 11/04/2020 08:08:59 -80.74,-109.19 83.37 11/04/2020 08:08:55 -80.75,-109.33 83.37 2.79 4
12 11/04/2020 08:59:40 80.73, 57.97 96.63 11/04/2020 08:59:51 80.75, 58.05 96.65 2.52 11
13 11/04/2020 09:50:21 -80.73,-134.66 83.36 11/04/2020 09:50:55 -80.74,-134.65 83.34 1.52 34
14 11/04/2020 10:41:01 80.74, 32.83 96.67 11/04/2020 10:41:51 80.74, 32.73 96.68 1.76 50
